DW5499 Weather Reports


time (UTC)temp
F
wind
direction
speed
knots
gust
knots
rain 1hr
in
rain 24hr
in
rain mn
in
humidity
%
barometer
mb
20260508231548 64 247 3.5 7.0 0.00 0.07 0.07 78 1008.0
20260508230040 63 286 0.9 4.3 0.00 0.07 0.07 82 1007.9
20260508224537 62 258 0.9 2.6 0.00 0.07 0.07 84 1007.7
20260508223038 61 155 0.0 4.3 0.00 0.07 0.07 86 1007.7
20260508221538 60 67 0.0 4.3 0.00 0.07 0.07 88 1007.7
20260508220038 59 136 0.9 6.1 0.01 0.07 0.07 89 1007.7
20260508214534 58 95 5.2 11.3 0.03 0.07 0.07 89 1007.2
20260508213043 58 108 1.7 6.1 0.05 0.07 0.07 88 1008.3
20260508211533 59 120 0.9 2.6 0.05 0.07 0.07 88 1008.7
20260508210027 59 321 0.0 0.9 0.05 0.06 0.06 87 1009.2
20260508204525 59 326 0.0 0.9 0.03 0.03 0.03 86 1009.5
20260508203029 59 353 1.7 5.2 0.02 0.02 0.02 86 1009.4
20260508201524 60 326 3.5 5.2 0.02 0.02 0.02 84 1009.4
20260508200029 60 356 0.9 2.6 0.01 0.01 0.01 79 1009.8
20260508194520 61 357 0.9 2.6 0.00 0.00 0.00 78 1009.3
20260508193019 61 331 0.0 1.7 0.00 0.00 0.00 77 1009.7
20260508191525 62 324 1.7 4.3 0.00 0.00 0.00 76 1009.0
20260508190018 62 176 0.0 2.6 0.00 0.00 0.00 74 1009.3
20260508184519 62 29 0.0 3.5 0.00 0.00 0.00 73 1009.0
20260508183016 62 81 0.9 2.6 0.00 0.00 0.00 70 1009.0
20260508181539 62 145 0.9 6.1 0.00 0.00 0.00 69 1009.5
20260508180016 62 195 1.7 4.3 0.00 0.00 0.00 70 1009.5
20260508174518 61 143 0.0 3.5 0.00 0.00 0.00 72 1009.2
20260508173014 61 355 1.7 6.1 0.00 0.00 0.00 72 1009.0
20260508171513 61 330 0.9 5.2 0.00 0.00 0.00 70 1009.3
20260508170014 62 335 3.5 6.1 0.00 0.00 0.00 68 1009.5
20260508164520 62 329 1.7 5.2 0.00 0.00 0.00 68 1010.2
20260508163011 62 249 1.7 7.0 0.00 0.00 0.00 68 1011.0
20260508161510 61 281 0.0 5.2 0.00 0.00 0.00 68 1010.5
20260508160013 61 242 0.9 6.1 0.00 0.00 0.00 68 1010.0
20260508154511 60 225 3.5 7.0 0.00 0.00 0.00 68 1009.8
20260508153007 60 162 3.5 7.0 0.00 0.00 0.00 68 1009.8
20260508151506 60 143 2.6 6.1 0.00 0.00 0.00 69 1009.8
20260508150006 60 207 3.5 7.0 0.00 0.00 0.00 68 1010.0
20260508144504 60 360 0.0 11.3 0.00 0.00 0.00 66 1009.9
20260508143004 60 174 5.2 10.4 0.00 0.00 0.00 66 1009.7
20260508141509 60 235 5.2 11.3 0.00 0.00 0.00 67 1009.7
20260508140003 59 215 3.5 7.0 0.00 0.00 0.00 69 1010.1
20260508134502 58 197 0.9 4.3 0.00 0.00 0.00 72 1010.1
20260508133001 57 109 0.0 1.7 0.00 0.00 0.00 72 1010.0
20260508131502 56 159 1.7 4.3 0.00 0.00 0.00 74 1009.8
20260508130100 56 177 1.7 6.1 0.00 0.00 0.00 77 1009.6
20260508124559 56 104 4.3 7.0 0.00 0.00 0.00 75 1009.3
20260508123059 56 48 0.0 0.0 0.00 0.00 0.00 75 1010.1
20260508121610 56 48 0.0 1.7 0.00 0.00 0.00 73 1009.6
20260508114556 56 49 0.0 0.0 0.00 0.00 0.00 72 1010.0
20260508113058 57 49 0.0 2.6 0.00 0.00 0.00 69 1009.6
20260508111600 58 345 0.9 3.5 0.00 0.00 0.00 66 1009.8
20260508104554 58 194 2.6 7.8 0.00 0.00 0.00 64 1009.1
20260508103120 58 194 0.9 5.2 0.00 0.00 0.00 65 1009.0
20260508101609 57 159 1.7 6.1 0.00 0.00 0.00 66 1008.9
20260508100052 56 211 1.7 3.5 0.00 0.00 0.00 69 1009.0
20260508094606 56 78 0.0 2.6 0.00 0.00 0.00 69 1009.0
20260508093051 56 101 0.9 2.6 0.00 0.00 0.00 69 1009.0
20260508091550 55 31 0.0 1.7 0.00 0.00 0.00 70 1009.2
20260508090059 55 46 0.0 4.3 0.00 0.00 0.00 71 1009.1
20260508084548 55 14 1.7 3.5 0.00 0.00 0.00 70 1009.1
20260508083100 56 43 1.7 5.2 0.00 0.00 0.00 67 1009.1
20260508081544 57 179 0.0 4.3 0.00 0.00 0.00 66 1009.3
20260508080046 57 180 2.6 7.0 0.00 0.00 0.00 66 1009.2
20260508074541 57 204 4.3 10.4 0.00 0.00 0.00 65 1009.5
20260508073037 57 197 1.7 4.3 0.00 0.00 0.00 65 1009.8
20260508071535 57 166 1.7 6.1 0.00 0.00 0.00 64 1010.0
20260508070032 58 204 1.7 6.1 0.00 0.00 0.00 63 1010.1
20260508064538 58 214 1.7 9.6 0.00 0.00 0.00 62 1010.3
20260508063029 59 225 4.3 12.2 0.00 0.00 0.00 62 1010.5
20260508061524 59 181 3.5 12.2 0.00 0.00 0.00 61 1010.7
20260508060022 60 197 7.0 13.0 0.00 0.00 0.00 60 1010.7
20260508054519 60 233 5.2 13.0 0.00 0.00 0.00 60 1010.7
20260508053022 60 176 6.1 13.0 0.00 0.00 0.00 59 1010.6
20260508051514 60 157 5.2 13.0 0.00 0.00 0.00 59 1010.7
20260508050019 61 143 3.5 14.8 0.00 0.00 0.00 58 1010.7
20260508044510 61 226 6.1 10.4 0.00 0.00 0.00 57 1010.8
20260508043010 61 178 8.7 14.8 0.00 0.00 0.00 57 1010.8
20260508041510 62 224 5.2 14.8 0.00 0.00 0.00 56 1010.9
20260508040017 62 185 5.2 10.4 0.00 0.00 0.00 56 1010.9
20260508034509 62 191 4.3 12.2 0.00 0.00 0.00 55 1010.8
20260508033008 62 201 5.2 12.2 0.00 0.00 0.00 55 1010.9
20260508031508 63 207 5.2 8.7 0.00 0.00 0.00 55 1010.9
20260508030007 63 204 4.3 9.6 0.00 0.00 0.00 54 1010.7
20260508024507 64 196 5.2 13.0 0.00 0.00 0.00 53 1010.5
20260508023019 64 212 2.6 10.4 0.00 0.00 0.00 52 1010.4
20260508021511 64 139 5.2 8.7 0.00 0.00 0.00 52 1010.2
20260508020005 65 158 3.5 7.0 0.00 0.00 0.00 51 1010.1
20260508014517 66 169 3.5 7.0 0.00 0.00 0.00 49 1009.9
20260508013005 66 182 3.5 7.8 0.00 0.00 0.00 48 1009.9
20260508011505 67 178 5.2 9.6 0.00 0.00 0.00 47 1009.9
20260508010004 68 192 5.2 9.6 0.00 0.00 0.00 46 1009.9
20260508004513 68 141 5.2 8.7 0.00 0.00 0.00 45 1009.9
20260508003012 69 207 4.3 10.4 0.00 0.00 0.00 44 1009.8
20260508001502 69 177 5.2 13.0 0.00 0.00 0.00 43 1009.9
20260508000000 70 144 5.2 13.9 0.00 0.00 0.00 42 1010.0
20260507234601 70 194 4.3 10.4 0.00 0.00 0.00 42 1010.1
20260507233058 70 174 7.0 13.9 0.00 0.00 0.00 40 1010.3